ECMWFFLT1_sfc_temp_078.txt.gz
Temp
15 15 15 15 16 18 20 22 23 26 27 27 26 27 27 26 26 25 25 25 24 24 22 21 21 21 22 23 21 22 23 23 23 24 24 24 23 22 22 20 18 16 16 20 23 23 23 23 22 21 21 21 20 20 19 25 22 22 22 22 22 22 27
13 13 13 13 13 14 15 18 21 23 25 25 25 26 26 26 25 25 24 24 22 22 22 21 20 20 21 22 21 21 22 22 22 22 22 22 22 20 20 22 19 17 16 15 21 20 24 22 23 21 22 20 20 20 20 20 21 22 21 22 22 21 22
11 11 11 11 11 12 13 14 16 19 21 22 23 24 25 26 25 24 23 22 21 21 21 20 20 20 21 22 20 20 21 21 21 22 21 21 22 20 20 21 20 19 16 16 18 23 20 20 21 19 20 21 21 21 21 20 17 19 20 22 22 21 22
10 10 9 9 10 10 10 11 12 13 16 19 21 22 22 24 24 24 22 21 21 20 20 19 19 20 20 21 20 20 20 21 21 21 21 21 21 21 21 22 22 20 18 18 17 21 20 21 19 19 21 20 21 20 19 19 18 16 17 18 20 21 21
9 8 8 8 8 9 9 9 9 9 10 12 16 19 21 22 22 22 21 21 20 21 20 19 19 20 21 21 20 20 20 20 19 20 20 20 21 21 21 21 21 20 19 18 17 19 20 20 19 19 20 19 17 16 16 14 14 16 16 17 18 19 21
7 7 7 7 7 7 7 7 8 9 9 11 13 15 17 20 21 21 21 21 20 20 20 20 19 20 20 20 19 19 19 20 19 19 19 19 20 20 20 20 20 20 19 18 18 19 19 17 17 17 16 17 17 16 15 12 13 11 11 12 14 16 18
5 6 6 5 5 5 6 7 8 8 9 10 11 11 13 16 18 20 21 21 21 20 20 20 20 19 20 20 20 19 19 19 19 19 19 19 19 19 19 18 18 19 18 17 17 18 19 19 18 18 17 16 17 16 16 14 10 10 11 11 12 14 17
3 4 4 4 5 5 6 6 7 7 8 8 9 10 12 14 17 19 19 20 21 21 20 19 19 19 20 20 20 20 20 20 19 20 18 19 19 19 18 18 18 17 17 16 16 16 16 17 18 16 16 16 14 12 12 14 13 10 11 13 11 11 14
3 2 2 3 4 4 4 4 4 5 6 7 9 11 12 14 16 17 18 19 19 20 20 19 19 19 19 20 22 23 23 22 22 20 18 18 19 18 18 17 17 17 16 15 15 15 16 16 15 16 16 12 10 11 13 14 14 11 11 12 12 14 13
2 2 1 1 1 2 2 3 4 7 13 14 12 13 14 15 16 17 18 18 19 19 19 18 18 19 21 22 22 23 23 24 24 23 21 19 19 18 17 17 16 15 15 15 14 14 15 13 13 14 15 14 14 15 14 13 13 10 13 10 9 12 11
-0 -1 0 0 -0 -0 1 3 4 11 14 15 17 15 14 14 16 17 18 18 18 17 18 18 18 18 20 21 22 22 23 23 24 24 24 24 23 22 19 16 15 14 15 14 14 15 14 14 14 15 16 16 15 14 14 13 13 12 8 6 5 4 11
-2 -1 -1 -1 -0 0 1 2 8 12 14 15 17 17 14 15 16 16 17 18 18 18 18 18 18 18 19 19 20 20 20 21 22 23 23 23 24 24 24 23 18 16 15 15 14 14 14 14 14 15 15 13 13 12 12 12 12 10 9 7 5 7 5
-2 -3 -2 -1 -2 -1 0 1 8 12 14 15 17 18 17 15 16 16 17 18 18 18 18 18 18 17 18 18 21 21 20 19 20 22 23 23 23 23 24 24 25 24 19 18 16 14 14 15 15 14 14 15 14 14 10 9 8 8 8 10 9 10 9
-3 -2 -3 -2 -2 -2 -0 0 7 12 15 14 14 18 17 14 15 16 16 17 18 18 18 18 17 17 16 17 18 19 19 18 18 18 19 20 20 20 21 23 25 25 24 22 18 16 15 17 17 15 16 15 17 13 10 9 9 8 7 8 10 14 14
-4 -4 -3 -2 -2 -2 -1 1 10 13 12 13 16 18 18 15 16 16 16 17 18 18 18 18 18 17 16 16 16 17 18 17 17 16 16 16 17 17 18 19 19 20 20 21 20 18 17 18 18 18 17 15 16 15 15 14 13 12 14 15 13 9 6
-3 -4 -3 -2 -2 -2 -1 1 11 10 10 14 16 18 15 14 14 14 15 16 17 18 18 18 17 16 16 16 16 18 22 20 17 15 14 14 15 15 16 17 20 23 24 22 21 20 19 19 18 20 16 15 14 14 14 12 13 12 13 13 10 11 4
-4 -3 -3 -3 -2 -1 -0 1 7 12 14 15 17 16 13 13 14 14 15 16 17 18 18 17 17 16 16 16 15 18 22 22 20 14 14 13 13 14 14 15 17 22 25 26 26 25 25 25 24 24 24 24 24 18 14 10 9 11 13 11 10 11 9
-4 -3 -2 -2 -2 -0 0 1 7 12 14 15 17 17 13 14 14 14 15 15 16 17 17 17 19 18 16 16 15 20 22 22 20 14 13 12 12 11 11 12 15 16 19 24 24 25 26 27 25 25 26 26 26 25 21 12 11 10 11 10 11 10 6
-4 -4 -2 -1 -1 3 2 2 6 12 14 15 17 16 13 13 13 13 13 14 14 15 16 16 18 19 17 16 17 22 22 22 21 16 14 13 12 10 10 12 13 14 14 15 16 17 19 22 25 24 22 23 25 25 24 18 17 15 12 10 11 13 10
-4 -5 -3 -2 -1 0 2 2 3 7 14 15 17 18 14 13 13 12 13 13 13 13 14 15 15 18 21 21 21 21 22 22 22 17 15 14 12 11 10 14 14 14 14 14 15 16 17 19 21 22 22 21 22 23 23 21 20 18 15 13 13 13 11
-5 -4 -3 -1 0 1 2 3 4 7 14 15 16 17 17 13 12 13 12 12 12 12 12 12 14 15 19 21 21 21 22 22 23 21 16 15 13 14 15 17 13 14 17 14 14 15 16 17 18 19 20 21 20 21 22 22 21 21 20 18 15 14 12
-4 -4 -3 -1 0 1 2 5 7 6 11 14 15 17 18 14 13 14 13 12 11 12 12 12 13 13 17 20 21 21 22 22 22 23 19 17 20 21 21 17 14 14 14 13 13 13 14 15 16 16 17 20 20 20 21 21 22 21 21 21 21 18 15
-5 -4 -3 -1 0 2 3 5 6 9 8 12 15 16 17 17 16 18 16 12 11 11 12 13 13 14 17 19 21 22 22 22 23 22 19 22 23 23 22 19 14 14 13 12 12 12 13 14 14 14 15 17 19 21 22 22 22 22 21 21 22 22 21
-4 -3 -3 -2 -0 2 3 5 5 8 10 10 14 15 16 17 17 18 15 14 12 13 13 12 12 13 18 20 21 22 22 22 21 20 22 23 23 22 21 19 14 13 12 12 12 12 12 13 14 14 15 16 18 19 20 21 22 23 22 22 21 22 22
-3 -3 -2 -1 -1 1 2 4 5 6 9 11 12 15 16 16 16 16 15 12 13 14 13 15 17 18 19 20 21 21 22 21 21 22 22 22 22 22 19 18 14 13 12 11 11 12 13 14 15 15 16 18 18 20 20 17 17 20 22 22 22 22 22
-2 -2 -1 -1 0 1 3 5 6 7 7 9 10 11 12 14 14 12 13 13 12 15 17 18 19 19 19 19 19 18 17 17 17 20 21 21 21 19 18 18 15 14 12 11 12 12 13 14 16 17 18 18 19 18 17 17 17 18 20 20 19 18 19
-2 -2 -1 0 2 3 5 7 8 8 7 6 5 5 6 7 6 9 10 8 8 11 14 17 17 17 18 18 19 19 19 18 19 18 18 18 18 18 18 18 17 16 15 14 13 14 15 16 18 19 19 17 18 17 18 19 19 19 19 20 19 18 17
-1 -1 1 2 4 6 7 8 8 9 7 6 5 5 5 4 4 3 2 3 5 8 12 15 17 17 16 16 15 15 15 14 15 16 16 16 16 16 18 19 20 19 18 17 17 17 18 18 19 18 18 18 18 18 19 20 19 19 19 20 19 17 17
1 3 5 6 6 6 5 7 8 9 13 10 12 8 5 4 4 3 4 7 10 11 12 13 12 11 11 10 10 11 12 12 13 13 15 16 16 16 16 18 18 17 17 18 18 17 18 19 19 19 19 19 18 18 19 20 19 20 20 20 20 18 18
4 7 7 7 8 8 7 7 11 18 19 18 17 18 17 14 12 11 7 9 12 12 10 11 10 10 10 10 10 10 11 12 13 14 14 15 17 17 17 17 18 18 18 19 19 19 19 19 19 19 18 18 18 18 18 19 20 19 21 19 19 18 18
10 11 10 9 7 9 12 13 15 17 19 19 18 18 19 19 18 17 15 13 11 9 9 10 9 9 9 10 11 11 11 12 13 14 15 15 16 18 18 18 18 19 20 19 19 20 20 20 20 19 19 18 18 18 18 19 21 21 20 20 19 18 18
7 9 7 10 9 9 8 12 14 16 19 20 19 19 19 19 19 19 18 17 15 8 8 11 9 9 9 10 10 11 12 12 13 14 15 16 16 17 18 18 18 19 19 19 19 19 19 19 20 20 19 19 19 19 19 19 19 19 19 19 19 19 19
10 11 12 11 12 12 10 11 13 15 18 19 19 20 20 20 20 20 20 18 11 8 9 10 10 10 10 10 10 11 12 13 14 15 16 17 17 16 17 18 18 19 19 18 19 18 18 19 19 19 19 19 19 19 18 19 19 19 19 18 16 16 16
8 9 9 10 11 11 13 12 14 15 15 17 17 18 18 18 18 20 19 15 9 8 7 8 8 9 9 10 10 11 12 13 13 14 15 14 14 13 14 15 17 17 17 17 18 17 16 17 17 18 18 18 18 18 18 18 19 19 18 17 16 15 15
-3 2 5 4 6 8 9 11 12 13 14 15 14 14 15 13 7 6 7 8 8 8 7 8 8 8 9 9 9 9 10 11 11 12 11 11 11 12 13 14 14 14 14 14 14 14 14 14 15 16 16 16 15 15 15 15 16 17 18 18 17 16 15
-5 -2 2 4 5 6 7 8 9 10 11 12 13 11 8 1 1 1 2 3 4 5 5 6 6 7 7 8 8 8 8 8 8 9 9 10 11 10 11 11 11 11 11 11 12 11 11 12 11 12 12 12 12 12 13 12 14 13 14 17 17 18 17

ECMWFFLT1_sfc_temp_084.txt.gz
Temp
6 6 6 5 5 5 4 4 4 5 5 5 5 5 6 6 6 5 5 6 6 8 7 7 8 10 13 17 18 21 23 24 25 24 24 24 24 22 23 22 19 16 16 20 21 22 23 23 24 22 23 22 22 21 24 28 24 24 24 24 23 24 29
6 5 5 4 4 4 4 4 4 4 4 3 3 3 4 4 4 4 4 5 4 5 6 6 6 7 8 11 14 18 20 22 23 23 23 23 22 22 22 24 19 17 17 15 21 19 24 23 24 22 24 21 22 21 21 22 23 23 23 23 22 22 22
5 4 4 3 3 3 3 3 3 3 3 2 2 2 2 4 4 3 3 3 4 5 6 5 5 5 7 9 9 12 16 20 22 23 22 22 23 22 22 23 22 19 16 16 17 21 20 21 22 22 23 23 23 23 23 21 21 21 21 22 22 22 22
4 3 2 2 2 2 2 2 2 2 2 2 2 1 2 2 3 3 3 3 3 3 4 5 5 6 7 7 7 8 11 15 19 21 22 22 22 22 21 23 22 22 19 18 16 20 20 22 20 22 23 24 22 23 21 22 21 20 19 20 20 21 21
3 2 2 1 1 1 1 1 1 1 1 1 2 1 1 1 1 1 1 1 1 3 2 2 3 4 5 6 5 5 6 8 12 18 21 21 22 21 21 21 22 21 21 18 17 18 21 21 22 23 23 24 21 20 19 19 19 19 18 17 19 20 21
1 1 0 0 0 0 0 0 1 0 0 0 1 1 1 -0 -0 0 0 0 1 1 1 1 1 2 3 3 3 3 6 7 9 13 17 20 21 21 21 20 20 21 20 19 18 19 18 20 19 20 22 24 23 20 18 16 15 13 14 15 14 15 16
0 0 0 -0 -0 -1 -1 -1 -0 -1 -0 -0 -0 -1 -1 -1 -1 -1 -0 0 1 1 1 2 2 2 3 3 3 4 5 5 7 10 13 18 20 21 20 19 19 20 19 18 17 18 19 19 20 21 19 22 23 22 21 18 16 14 14 13 14 14 15
-1 -1 -0 -1 -1 -1 -1 -2 -2 -1 -1 -1 -2 -2 -2 -2 -1 -1 -0 0 1 2 3 3 4 5 5 5 6 6 6 7 7 9 10 15 19 20 19 19 19 19 19 18 17 17 17 18 18 20 22 23 20 18 18 19 18 14 14 13 13 15 16
-1 -2 -3 -2 -2 -2 -2 -3 -3 -3 -3 -3 -3 -1 -1 -0 0 1 1 2 2 3 4 5 6 7 8 9 11 12 13 13 14 12 12 14 17 18 19 18 19 18 18 17 17 17 18 17 18 19 19 18 16 16 15 17 16 15 17 15 15 15 16
-2 -3 -4 -5 -4 -4 -4 -4 -4 -1 5 8 4 4 5 6 6 6 6 6 7 8 9 9 9 9 12 12 13 13 14 15 16 16 15 14 16 18 18 18 18 17 17 17 16 16 17 16 16 17 19 18 19 19 20 16 15 14 15 12 13 15 15
-5 -6 -5 -5 -6 -6 -6 -5 -4 4 8 10 12 9 7 6 6 7 6 6 5 5 6 7 8 8 10 11 12 12 13 14 15 17 17 18 19 19 18 17 17 17 18 17 16 17 17 17 16 18 20 19 20 20 18 16 15 14 14 11 11 9 11
-6 -6 -6 -6 -6 -7 -6 -6 1 8 9 11 12 8 4 5 4 4 4 4 4 4 5 5 6 7 8 9 9 10 11 12 14 16 17 18 19 21 22 22 20 18 17 17 16 16 16 17 17 18 19 18 19 17 17 17 16 14 13 11 11 12 10
-6 -7 -7 -7 -7 -7 -6 -6 2 7 10 9 9 8 5 3 3 4 4 4 5 5 6 6 7 7 9 9 12 13 12 12 13 15 17 18 18 19 21 23 23 25 21 19 17 16 16 17 18 17 18 19 19 19 14 15 14 14 14 13 12 11 11
-8 -7 -8 -8 -8 -8 -7 -7 1 7 10 5 8 9 10 6 5 4 5 5 5 6 6 7 7 7 8 10 11 11 12 12 12 13 13 14 15 15 17 20 23 23 23 23 20 18 16 18 20 18 19 19 20 18 15 14 13 14 13 12 12 14 15
-9 -8 -8 -8 -8 -8 -8 -7 4 9 7 7 9 8 11 6 5 5 4 4 5 5 5 7 8 8 8 9 9 11 13 12 12 13 13 13 14 14 15 17 18 19 19 20 21 20 19 20 20 20 20 19 20 20 19 18 16 16 15 15 15 14 12
-8 -9 -9 -8 -8 -8 -8 -6 6 8 4 7 11 12 7 6 5 4 4 4 5 5 6 7 7 8 8 9 9 12 17 17 15 13 12 12 13 14 15 16 21 23 24 21 21 21 21 21 22 24 20 20 20 20 20 19 18 16 15 13 10 10 7
-9 -8 -9 -8 -8 -8 -8 -7 1 8 8 3 12 10 6 6 6 5 5 5 5 6 6 7 8 8 8 9 9 13 17 18 19 14 13 13 13 14 14 14 17 23 26 26 26 26 27 26 26 27 27 27 26 22 20 17 14 12 13 11 9 9 6
-9 -8 -8 -8 -9 -8 -8 -7 0 8 10 9 6 7 6 7 6 5 6 5 6 6 6 7 11 11 10 10 10 16 18 19 18 14 14 14 13 12 12 14 16 18 20 26 27 27 27 27 26 27 28 28 27 26 23 16 13 14 13 11 11 8 7
-10 -9 -8 -8 -8 -4 -5 -5 -1 7 10 13 13 10 8 7 6 6 6 6 6 7 7 8 10 12 12 12 14 18 20 20 19 15 15 15 14 12 12 14 17 17 16 17 18 20 22 22 24 24 23 24 25 26 24 19 17 16 13 12 10 10 5
-10 -11 -10 -8 -7 -6 -5 -5 -3 1 11 12 12 12 9 9 9 8 8 8 8 7 7 8 8 10 14 18 18 19 20 21 22 17 16 16 14 13 13 17 17 17 16 15 16 15 15 16 19 21 22 22 23 24 23 19 19 17 15 14 12 11 10
-11 -11 -10 -8 -6 -6 -5 -3 -2 1 11 13 13 13 14 9 10 10 9 9 8 8 7 7 8 9 12 15 18 20 21 21 22 22 19 17 15 16 18 20 15 16 18 15 15 15 14 15 15 15 17 19 20 21 22 20 19 18 17 16 13 11 11
-11 -11 -10 -8 -6 -5 -4 -0 2 2 8 13 13 13 16 12 10 12 11 10 8 8 7 7 8 8 11 14 18 19 21 22 22 23 20 19 22 23 23 18 16 15 15 14 13 12 12 12 12 13 14 16 17 19 21 19 18 18 17 17 17 15 13
-12 -11 -10 -8 -6 -4 -2 -0 2 5 5 11 14 14 15 16 15 18 15 10 8 8 8 9 9 10 14 16 18 20 21 22 22 22 20 23 23 23 23 20 15 14 14 13 12 11 10 10 10 11 12 14 15 17 19 18 18 18 17 18 18 19 19
-11 -10 -10 -9 -7 -5 -2 0 1 5 8 8 13 14 14 16 17 19 14 12 10 9 9 8 8 10 16 19 20 21 21 22 22 20 22 24 24 22 22 17 13 12 12 12 11 10 9 8 9 11 12 14 16 17 19 19 18 18 18 17 18 18 19
-11 -10 -9 -8 -7 -5 -2 -0 2 4 7 9 9 14 17 17 17 18 17 12 9 9 8 11 15 18 19 19 19 20 20 19 19 21 21 22 22 22 19 14 13 11 11 10 9 9 9 9 10 12 13 16 17 18 19 19 18 18 18 18 18 18 19
-10 -9 -8 -7 -6 -5 -3 -0 2 4 5 7 8 10 13 16 16 16 16 15 12 13 14 15 17 17 16 16 17 17 15 15 17 20 21 21 21 19 17 14 12 11 10 9 10 10 10 10 11 12 14 16 17 17 17 18 17 17 17 17 17 16 16
-9 -8 -7 -7 -5 -4 -2 -0 1 3 4 6 7 8 11 13 11 12 13 10 7 8 5 6 10 11 14 16 18 18 18 18 18 15 16 16 18 18 16 15 13 11 11 10 10 10 11 12 12 14 14 14 15 15 17 18 18 17 17 17 17 16 15
-9 -8 -7 -6 -5 -4 -2 -1 1 2 3 5 6 9 11 12 9 5 4 4 3 0 3 6 9 12 13 14 13 13 12 12 13 13 13 13 14 15 16 16 17 15 13 12 12 12 12 12 13 12 12 13 14 15 16 17 17 18 17 18 18 16 15
-8 -6 -5 -4 -4 -4 -4 -2 -1 2 7 6 10 9 10 10 7 5 4 7 10 8 7 8 10 10 9 9 10 9 7 8 9 8 9 12 12 13 14 15 14 12 11 12 12 11 11 11 12 12 13 13 13 14 15 17 16 18 18 18 18 16 16
-7 -4 -3 -4 -3 -2 -3 -2 1 7 9 10 9 11 11 11 14 15 10 12 14 13 9 9 9 9 9 8 6 6 6 6 6 5 6 8 14 12 11 13 14 14 13 13 12 12 12 11 12 12 13 12 12 13 14 16 17 15 18 17 16 15 16
0 0 -0 -2 -4 -2 2 3 6 7 7 9 10 11 12 12 13 12 11 12 9 6 6 7 7 7 7 7 6 6 6 8 8 9 7 7 9 10 12 13 13 14 14 14 13 13 13 13 13 12 13 13 13 13 13 14 16 16 16 17 17 16 16
-3 -3 -3 -1 -1 -2 -3 1 5 6 7 7 9 7 10 11 11 11 10 8 6 1 0 2 2 3 4 5 6 8 8 7 7 9 9 9 8 9 11 13 13 15 15 14 13 13 13 13 13 13 14 14 14 14 13 14 14 15 15 16 17 16 16
-0 -1 -3 -4 -2 -2 -6 -1 5 6 10 8 5 9 6 7 8 9 7 4 -1 -3 -3 -2 -1 -1 -0 1 2 4 6 8 8 8 9 10 11 11 11 13 15 16 15 15 15 14 14 14 15 15 15 16 15 15 13 14 14 15 16 16 16 16 17
-3 -2 -2 0 2 2 -0 5 6 8 8 9 9 8 6 3 1 6 7 1 -4 -4 -5 -4 -4 -3 -2 -2 0 1 2 4 6 9 11 12 12 12 13 14 15 14 14 15 16 16 15 15 15 16 15 15 15 16 16 15 15 16 15 15 16 16 16
-14 -9 -5 -7 -6 -4 -2 0 2 3 5 5 5 4 2 1 -6 -8 -7 -6 -5 -5 -6 -5 -5 -5 -4 -4 -3 -1 -0 1 2 3 6 9 11 12 13 14 15 15 15 15 16 16 16 16 16 17 17 17 16 16 15 16 16 16 16 16 17 17 17
-16 -14 -9 -6 -6 -6 -3 -1 -0 1 3 5 6 4 -2 -9 -10 -10 -9 -8 -8 -7 -6 -5 -5 -5 -6 -5 -5 -3 -2 -1 0 1 3 7 10 11 13 14 15 15 15 15 16 16 17 17 17 18 17 17 17 16 16 17 17 17 17 18 18 18 17

ECMWFFLT1_sfc_temp_087.txt.gz
Temp
8 8 8 7 7 7 6 7 6 7 7 6 6 6 6 6 6 5 6 7 6 8 7 6 6 6 8 9 7 8 9 10 10 12 13 16 19 20 23 24 21 19 19 25 30 29 30 32 32 30 31 30 30 30 30 32 34 34 33 33 33 34 34
8 8 7 7 6 6 6 5 6 6 6 5 4 4 5 5 5 5 4 5 5 6 6 6 5 5 6 8 6 7 7 8 9 9 10 12 13 17 20 24 22 21 20 18 26 27 30 30 32 28 32 29 30 29 30 30 32 33 32 32 33 33 33
7 6 6 5 5 5 4 5 4 5 4 3 3 3 3 4 4 3 3 3 3 4 5 4 3 3 5 6 4 5 6 8 8 9 8 9 11 12 16 21 22 21 19 19 21 27 27 28 29 28 29 31 30 31 31 29 28 29 30 31 32 32 32
6 5 5 4 4 3 3 3 3 3 3 3 3 2 2 2 3 2 2 1 1 2 2 2 2 2 3 3 2 3 5 6 7 7 8 8 9 10 12 16 20 23 21 21 19 24 26 28 27 27 29 31 31 30 29 29 28 28 27 29 29 30 31
5 4 3 3 2 2 2 2 2 2 2 2 2 2 1 1 0 0 1 1 1 2 1 1 0 1 2 2 1 1 3 4 4 5 5 5 7 8 9 11 15 19 22 21 20 22 26 28 28 29 29 30 28 28 28 27 25 26 25 26 27 28 29
3 3 2 2 2 2 2 2 2 1 1 1 1 1 1 -0 -0 -0 -0 0 1 1 1 0 0 1 1 1 0 1 2 3 3 4 4 4 5 7 8 9 11 14 19 21 21 22 22 26 25 26 26 28 28 26 25 24 24 24 24 24 24 25 25
2 2 1 1 1 1 1 1 1 0 0 0 0 -1 -1 -1 -1 -0 -0 0 1 1 1 1 1 2 3 2 2 2 2 2 3 3 3 4 5 6 6 6 8 11 13 18 19 20 23 23 25 26 24 27 28 27 26 24 22 21 23 23 22 22 23
0 1 1 0 0 0 0 -1 -1 -1 -1 -1 -2 -2 -2 -2 -2 -1 -1 0 1 2 2 2 4 4 4 3 3 3 3 4 3 4 4 5 6 6 6 6 8 9 11 14 17 19 20 22 22 24 26 28 26 23 23 26 24 20 22 21 21 21 23
-0 -2 -2 -1 -1 -2 -2 -3 -3 -3 -3 -3 -3 -2 -3 -2 -1 -1 -0 0 1 2 2 3 5 5 5 6 7 8 8 8 9 6 5 6 7 7 7 7 8 9 11 12 15 17 20 21 21 21 22 22 21 19 20 24 25 22 24 24 23 21 22
-2 -3 -4 -4 -4 -4 -4 -4 -4 -2 3 6 3 3 3 3 3 2 2 2 2 4 4 4 4 5 7 8 9 10 10 11 12 13 11 10 10 9 9 9 9 10 11 11 12 15 17 17 18 20 22 21 22 25 25 23 23 20 23 24 22 23 23
-4 -5 -4 -5 -6 -6 -6 -5 -4 2 7 10 12 8 6 6 6 7 6 6 5 5 5 6 6 7 8 9 9 9 11 11 12 13 14 14 14 14 12 10 9 10 11 10 11 14 16 17 18 20 23 22 23 24 23 22 23 22 21 19 18 16 21
-6 -5 -6 -6 -6 -7 -6 -6 -1 6 8 10 11 8 6 6 6 5 5 5 5 5 5 5 5 6 6 6 7 7 7 8 10 12 13 14 14 16 18 17 13 11 10 10 10 11 14 17 17 19 21 21 22 22 23 23 22 20 19 18 18 18 17
-6 -7 -6 -7 -7 -8 -7 -7 1 5 8 8 6 6 7 6 6 6 6 6 6 6 6 6 6 6 7 7 9 9 8 7 7 10 12 12 13 14 16 17 18 19 16 14 12 12 12 15 18 18 20 22 23 23 21 21 20 20 20 19 18 19 21
-7 -7 -8 -8 -8 -8 -8 -7 -1 5 8 6 6 9 9 6 7 7 7 7 7 7 6 7 6 6 6 7 8 8 8 8 7 8 8 9 10 11 12 14 17 17 17 17 15 14 13 16 19 19 21 22 23 21 20 20 19 21 19 19 18 21 22
-9 -9 -8 -8 -8 -8 -8 -8 2 7 7 4 9 9 9 7 7 8 7 7 7 7 7 7 7 7 6 7 7 8 9 7 7 8 8 8 8 10 11 12 12 13 14 15 16 16 16 17 19 20 22 23 24 22 23 23 21 21 20 20 21 21 21
-8 -9 -9 -8 -8 -9 -9 -7 3 7 2 7 9 7 6 7 6 5 6 6 7 7 8 8 8 8 7 7 7 9 14 13 10 8 7 7 8 9 11 12 16 18 19 17 16 16 17 18 20 23 22 23 24 24 24 25 24 23 20 18 17 16 19
-9 -8 -9 -9 -9 -9 -9 -8 -1 6 5 5 9 7 6 5 7 7 6 7 8 9 9 9 9 8 8 8 8 10 15 14 13 9 8 8 8 9 10 11 14 19 21 22 23 23 23 24 25 25 26 27 27 25 25 23 21 17 19 16 14 15 17
-10 -9 -9 -9 -9 -9 -9 -8 -2 6 -0 5 9 10 6 7 6 6 7 7 9 10 11 11 12 11 9 9 9 14 16 14 12 9 10 9 9 9 9 11 13 14 16 22 23 24 24 24 25 26 26 27 29 27 26 21 17 19 19 15 16 14 16
-10 -10 -9 -9 -9 -6 -6 -7 -3 5 5 4 8 7 7 8 7 6 7 8 9 10 11 12 13 13 12 11 12 16 15 14 14 10 11 11 10 9 9 11 14 13 14 14 15 17 18 19 23 23 23 23 24 26 26 23 21 22 19 15 16 16 16
-10 -11 -10 -9 -8 -8 -7 -7 -5 -2 7 3 5 10 7 7 6 6 7 8 9 9 11 12 13 14 15 17 17 16 16 17 19 15 13 13 11 10 10 14 14 15 15 15 16 16 17 18 20 21 22 22 22 23 24 23 22 22 21 18 17 17 16
-11 -11 -11 -9 -8 -7 -6 -5 -4 -1 8 9 9 11 8 7 7 9 9 9 9 11 12 13 13 14 14 16 17 17 18 20 20 20 16 15 13 14 16 18 15 16 18 16 16 16 17 18 19 20 21 21 22 23 24 23 22 23 22 21 18 16 16
-12 -11 -10 -9 -7 -7 -6 -3 -1 -2 5 9 9 11 12 9 9 11 11 11 11 12 13 13 14 12 13 14 16 17 19 20 21 21 19 18 20 21 21 18 18 17 17 17 17 17 17 17 18 18 19 20 21 22 23 23 22 21 21 22 22 20 17
-13 -12 -11 -9 -7 -6 -5 -3 -2 1 1 6 10 12 13 14 14 15 13 11 11 12 12 13 12 12 13 14 17 18 19 20 21 20 18 21 22 23 23 21 19 18 17 17 16 16 15 16 17 17 17 18 20 22 23 23 23 21 21 21 22 22 22
-12 -11 -11 -10 -8 -6 -4 -3 -1 1 2 3 8 11 12 14 16 17 13 12 13 14 13 12 12 12 15 17 18 19 20 20 19 18 20 22 23 22 21 20 19 18 17 16 15 14 14 15 16 17 17 18 19 20 21 22 21 20 20 20 21 21 21
-11 -11 -10 -10 -9 -7 -5 -3 -2 -1 1 3 5 11 12 14 15 15 14 11 12 13 13 14 17 17 17 18 18 19 19 18 18 19 20 21 21 21 21 20 19 17 16 14 13 13 14 15 16 17 18 19 19 20 20 19 19 19 20 20 20 20 20
-10 -10 -10 -9 -8 -7 -5 -4 -3 -2 -1 2 4 6 10 13 12 12 12 12 11 12 13 13 14 13 13 14 14 14 14 15 17 19 19 19 21 20 20 18 16 15 14 13 14 14 14 15 16 17 18 17 18 18 18 19 18 18 17 18 17 17 17
-10 -10 -10 -9 -7 -6 -6 -5 -4 -3 -2 -0 2 5 7 8 9 11 10 8 9 11 9 9 10 11 13 14 16 17 17 16 16 15 16 17 19 18 18 16 16 15 15 15 15 14 15 15 16 16 16 16 17 17 18 20 19 18 17 17 17 16 15
-10 -10 -9 -8 -7 -7 -7 -7 -5 -4 -3 -1 2 5 6 7 7 7 6 5 7 8 9 9 12 12 13 13 13 14 12 13 14 14 14 16 17 17 17 16 17 17 16 16 16 15 15 14 14 13 14 16 16 17 18 20 19 18 17 17 16 14 13
-9 -7 -6 -6 -7 -8 -9 -7 -7 -4 1 2 5 5 4 5 5 6 5 5 7 5 5 5 4 4 5 6 7 9 10 11 12 13 13 13 15 15 16 16 15 14 14 14 14 13 13 12 13 13 14 14 15 15 17 19 19 19 18 17 17 15 15
-7 -6 -5 -6 -6 -5 -7 -7 -5 2 1 -0 4 5 7 5 7 10 6 4 5 4 0 -0 -1 -1 -1 1 2 4 5 7 9 11 12 13 15 15 15 15 15 15 14 14 14 14 13 13 13 12 13 13 13 15 16 18 19 18 19 17 16 15 16
3 -0 -2 -5 -7 -4 -1 -1 -1 1 -2 1 5 7 3 5 8 8 6 4 1 -2 -3 -3 -4 -3 -3 -2 -1 -0 1 3 5 7 10 11 12 13 15 15 15 15 15 14 14 14 14 13 13 12 13 13 13 14 15 16 18 19 19 17 17 16 17
-2 -2 -1 -3 -4 -5 -5 -3 -1 1 -2 2 4 4 4 9 6 8 6 2 1 -5 -5 -5 -5 -5 -5 -5 -5 -3 -2 -0 1 3 5 8 11 12 14 15 14 16 15 15 14 13 13 13 13 13 14 14 14 14 14 15 16 17 17 18 18 18 18
-0 -1 -4 -6 -2 -1 -2 -5 -3 -2 -4 4 5 7 3 4 4 4 3 -0 -5 -7 -7 -7 -6 -6 -6 -6 -6 -5 -5 -3 -1 0 2 5 9 12 13 14 15 17 16 15 15 14 14 14 14 14 14 14 14 14 13 14 15 16 17 17 17 17 18
-5 -6 -8 -5 -3 -8 -3 -0 -2 1 4 6 6 6 3 -1 -3 1 2 -2 -8 -8 -9 -8 -7 -7 -7 -7 -6 -6 -6 -5 -4 -2 0 2 5 10 14 14 15 15 16 15 15 15 14 15 15 15 14 14 14 15 14 14 15 16 15 16 17 17 17
-17 -13 -11 -12 -10 -8 -7 -6 -3 -2 -0 2 2 1 -0 -2 -9 -10 -9 -8 -8 -8 -9 -9 -8 -8 -7 -7 -8 -7 -7 -7 -6 -5 -2 -0 2 7 11 14 14 15 15 16 16 15 15 15 15 15 15 15 14 14 13 14 15 15 16 16 16 17 17
-19 -18 -14 -11 -11 -10 -9 -7 -5 -4 -2 2 3 1 -5 -12 -12 -12 -11 -11 -10 -10 -9 -9 -8 -8 -8 -8 -8 -8 -8 -8 -8 -7 -5 -1 2 6 11 13 14 15 15 15 16 16 16 16 16 16 16 16 16 15 14 14 15 15 16 17 17 18 18

ECMWFFLT1_sfc_temp_090.txt.gz
Temp
14 14 14 14 14 14 13 13 13 14 13 12 11 12 12 12 12 11 11 12 12 13 11 9 9 9 12 13 11 12 12 13 14 15 14 14 15 15 16 16 15 14 15 22 28 28 30 33 34 34 36 35 36 36 36 37 38 39 38 38 38 39 37
14 14 12 14 12 12 14 12 13 13 12 12 12 10 11 10 10 10 10 10 9 10 9 9 8 9 9 12 9 9 9 10 11 11 12 12 12 13 13 18 15 14 15 14 24 25 30 30 33 31 35 34 34 35 36 35 36 37 38 38 38 38 38
13 12 13 12 11 11 11 12 11 11 11 9 8 8 8 9 9 8 8 8 8 9 9 7 7 7 8 8 7 7 8 9 8 9 9 9 11 11 14 15 16 13 10 12 15 23 25 27 29 30 31 34 35 35 36 35 35 35 35 37 38 38 38
12 12 11 10 10 10 10 9 9 9 9 8 8 7 7 7 7 7 7 5 5 6 5 5 4 5 6 6 5 5 6 8 8 8 8 8 9 10 12 13 15 15 11 11 11 18 21 25 26 28 31 32 34 34 34 34 32 33 32 34 36 37 37
12 10 9 8 8 8 8 8 8 7 7 7 8 7 6 5 4 4 4 4 4 5 4 4 3 4 5 5 4 4 5 6 6 7 7 7 9 10 10 12 13 13 14 11 10 13 19 22 24 27 29 30 30 31 33 33 30 31 31 31 32 35 36
9 8 7 8 7 7 7 7 7 6 6 6 6 6 5 4 3 4 3 3 4 4 4 3 3 4 4 4 3 4 5 5 5 6 6 6 7 8 9 9 10 11 10 10 10 12 13 18 19 22 25 28 30 29 29 28 29 30 30 30 30 31 32
7 7 7 6 6 5 5 5 5 4 5 5 4 3 2 2 2 3 3 3 4 4 4 4 4 4 4 4 4 4 4 4 4 5 5 5 6 7 7 7 8 8 8 8 8 10 14 15 17 20 20 26 29 29 29 28 26 26 29 29 28 28 31
4 5 6 5 5 5 5 3 3 4 3 2 1 0 0 1 0 1 2 2 3 4 4 4 4 4 5 5 5 5 5 5 4 6 5 7 7 7 6 6 7 8 8 7 7 8 9 13 14 18 21 25 26 25 26 28 27 24 26 27 28 28 28
4 3 2 3 3 2 3 1 0 1 0 -1 -1 -1 -1 -1 -0 0 1 1 2 3 4 5 5 5 5 6 7 8 8 8 8 6 5 7 7 7 7 7 8 8 8 8 8 8 10 12 14 16 18 19 21 21 22 27 29 25 26 27 27 28 29
2 1 -0 -1 -1 -0 -1 -1 -1 1 3 6 -0 2 3 3 3 3 2 2 2 4 5 5 6 6 8 8 8 9 9 10 11 11 9 8 8 8 7 7 7 7 8 8 7 7 8 9 10 14 17 18 22 25 27 26 27 25 26 26 25 27 29
-1 -2 -1 -2 -2 -3 -3 -3 -2 3 6 2 6 6 4 3 4 5 6 6 6 6 7 8 9 9 9 9 10 9 11 11 12 13 13 13 13 12 9 7 6 6 8 8 7 9 9 9 10 13 18 20 21 23 24 24 26 26 24 23 21 20 25
-3 -2 -2 -3 -3 -4 -4 -4 0 4 4 1 5 7 4 5 5 5 6 7 7 7 7 7 8 8 9 9 9 9 9 10 11 12 13 13 14 14 16 15 11 9 9 8 8 8 9 9 9 12 15 16 18 20 23 24 24 24 23 21 21 21 21
-3 -4 -3 -4 -5 -5 -5 -5 1 5 5 -1 3 6 6 6 6 6 6 6 7 7 7 8 8 8 9 9 11 11 9 8 8 11 12 12 13 13 15 16 17 17 14 13 11 9 9 10 11 11 12 15 17 20 19 22 23 23 23 23 22 23 24
-4 -4 -5 -5 -6 -6 -5 -5 -1 6 2 3 11 8 6 5 6 6 6 6 6 7 7 8 8 8 8 10 10 10 10 9 9 9 9 9 9 10 11 13 16 15 16 16 13 12 10 12 13 12 14 16 17 16 15 18 20 23 22 22 22 25 26
-5 -5 -5 -6 -6 -6 -6 -6 2 6 4 6 8 8 6 6 5 5 6 6 7 7 7 8 8 9 9 9 10 11 11 9 9 9 9 8 8 8 9 10 10 11 11 12 13 13 13 13 15 15 16 16 18 17 17 18 19 21 22 24 25 25 26
-4 -6 -6 -5 -6 -7 -7 -6 3 5 1 6 4 6 4 4 3 4 5 6 8 8 9 10 9 9 9 9 10 12 16 15 12 10 8 8 8 9 9 10 13 16 16 14 13 13 13 14 15 18 16 17 18 18 19 20 21 21 21 21 21 19 22
-6 -5 -6 -6 -6 -7 -7 -6 -1 3 1 3 7 5 3 3 4 5 5 6 8 10 11 11 11 11 11 11 11 13 17 18 16 12 10 8 7 8 9 9 11 16 18 17 19 19 20 20 20 21 22 23 23 21 20 20 18 17 19 19 18 18 20
-6 -6 -5 -6 -7 -6 -7 -6 -1 2 0 2 8 6 3 4 4 4 6 7 9 10 11 12 13 13 12 12 12 16 18 19 17 12 12 10 8 7 7 8 10 11 13 18 19 20 21 21 21 23 23 23 24 24 23 18 15 17 20 18 19 17 20
-6 -6 -6 -6 -6 -4 -6 -6 -2 4 2 2 6 2 4 5 5 5 5 7 8 10 11 12 14 15 15 14 16 18 18 17 16 14 13 12 10 8 7 9 11 10 10 11 11 13 14 15 18 18 18 19 21 23 23 21 19 20 19 18 20 20 20
-7 -8 -8 -6 -6 -6 -5 -6 -4 -2 5 1 7 6 4 6 4 4 5 7 9 9 12 13 14 16 18 20 20 20 21 21 21 17 15 13 11 10 9 12 12 13 12 12 12 13 14 14 15 16 17 18 18 19 20 20 21 21 21 20 21 21 20
-9 -9 -9 -6 -6 -5 -4 -4 -3 -2 5 -0 2 5 6 5 5 6 7 7 9 11 10 11 12 14 17 19 19 20 21 21 21 21 18 14 12 12 14 16 14 14 15 13 13 14 14 15 16 17 18 18 19 20 20 21 21 22 22 22 21 20 20
-9 -9 -8 -6 -5 -4 -3 -1 -1 -1 3 8 5 -1 3 5 6 8 8 8 9 9 9 10 12 13 16 17 19 20 20 21 21 21 19 19 19 19 20 17 17 16 16 15 15 15 15 15 16 17 18 18 19 20 21 21 22 23 23 24 24 23 21
-10 -9 -8 -6 -4 -2 -2 -2 -0 2 1 5 6 5 2 7 6 11 10 8 7 8 8 10 10 12 15 16 18 21 21 21 22 21 19 21 22 23 22 20 18 17 17 16 15 15 14 15 16 16 17 19 19 21 22 23 23 23 23 23 24 25 25
-8 -8 -7 -7 -5 -3 -1 -0 1 2 2 1 6 6 5 7 10 12 10 9 8 9 8 8 9 11 15 17 18 20 20 21 20 19 21 22 21 20 20 20 20 18 17 17 16 15 15 16 17 17 18 19 21 22 21 22 23 23 23 23 23 24 24
-8 -8 -7 -6 -6 -4 -2 -0 -0 0 1 2 3 6 7 8 11 11 10 8 8 8 7 9 12 13 15 16 17 17 18 18 19 20 19 20 20 20 20 20 20 19 19 17 16 16 16 17 19 19 20 21 21 22 23 22 22 23 23 23 23 23 24
-8 -7 -7 -7 -5 -4 -3 -2 -1 -1 -0 2 2 3 5 8 9 8 9 9 7 7 8 9 10 10 10 10 12 13 15 16 17 18 19 20 20 19 20 20 21 20 19 18 17 17 17 19 21 21 22 21 22 22 22 22 22 22 22 21 21 21 21
-7 -7 -7 -7 -6 -4 -4 -4 -3 -2 -1 0 0 0 2 5 6 8 8 7 5 5 4 5 6 7 8 8 9 10 12 13 14 16 18 19 19 19 19 19 20 20 20 19 19 18 19 21 22 23 21 20 20 20 21 23 22 21 20 20 21 20 18
-8 -8 -8 -7 -5 -5 -5 -6 -4 -3 -3 -2 -2 -0 3 5 5 5 6 4 3 3 3 3 5 5 5 4 4 6 7 7 9 11 13 15 16 17 18 18 20 20 20 21 21 21 21 20 19 18 18 19 19 19 20 22 21 20 19 20 20 18 17
-8 -7 -6 -5 -5 -7 -8 -7 -6 -4 -1 -2 1 0 2 2 2 4 5 4 3 2 2 2 2 2 1 1 1 1 2 3 4 5 7 9 12 14 17 18 19 18 19 20 20 18 17 17 17 17 17 18 18 19 20 21 21 21 19 19 19 17 17
-6 -4 -3 -5 -5 -5 -7 -7 -4 -3 -6 -7 -2 -1 2 1 0 4 5 3 2 1 -1 -2 -2 -1 -1 -2 -1 -2 -2 -1 0 1 3 5 9 11 15 17 17 18 19 19 19 18 18 17 17 16 16 17 17 18 19 20 20 20 20 17 17 17 17
-1 -3 -2 -4 -6 -4 -1 -2 -2 -2 -4 -3 -2 3 3 1 7 4 5 3 -1 -3 -4 -4 -4 -4 -3 -3 -3 -3 -4 -3 -2 -1 -0 2 5 8 13 16 17 17 17 18 18 18 18 17 17 16 17 16 16 17 17 19 20 21 20 18 18 17 18
-5 -3 -1 -1 -3 -5 -6 -4 -3 -3 -3 -6 -3 -2 4 3 4 3 4 1 -0 -5 -6 -6 -6 -5 -5 -5 -5 -5 -4 -4 -4 -3 -2 -1 1 4 8 13 16 18 17 17 17 17 17 17 17 17 16 16 16 16 17 17 18 18 19 19 19 19 19
-1 -3 -5 -1 -1 -0 -3 -5 -6 -6 -3 -3 -1 -1 2 2 2 1 1 -0 -5 -7 -7 -7 -7 -7 -6 -6 -6 -6 -6 -5 -5 -5 -4 -2 -1 1 5 8 12 16 17 17 17 17 17 17 17 16 16 16 16 15 15 16 16 17 19 19 18 18 18
-5 -5 -7 -6 -4 -2 -1 -1 -2 -2 -2 -2 1 4 2 -2 -4 -1 0 -3 -7 -8 -9 -8 -8 -8 -7 -7 -6 -6 -6 -6 -6 -5 -5 -4 -2 0 3 7 11 15 17 18 17 17 17 17 17 17 16 15 16 16 16 16 16 16 17 18 18 18 18
-13 -9 -9 -12 -11 -9 -9 -8 -7 -6 -4 -2 1 1 -1 -3 -8 -10 -9 -8 -8 -8 -8 -9 -9 -9 -8 -7 -7 -7 -7 -7 -7 -6 -6 -6 -4 -2 1 4 9 14 17 17 18 17 17 17 16 16 16 16 15 15 14 15 15 16 17 17 18 18 18
-14 -13 -12 -11 -10 -10 -10 -10 -8 -7 -5 0 1 1 -5 -11 -12 -12 -11 -11 -10 -9 -9 -8 -8 -8 -8 -8 -7 -7 -7 -7 -7 -7 -7 -6 -5 -4 -2 0 3 5 10 16 17 17 18 17 17 17 17 17 16 15 15 16 15 16 17 18 19 19 19

ECMWFFLT1_sfc_temp_093.txt.gz
Temp
16 17 16 16 16 15 15 15 15 15 16 15 13 14 14 14 14 13 13 13 13 14 13 11 11 11 12 14 11 12 13 13 14 16 15 15 15 14 14 14 12 9 10 17 22 22 23 26 28 27 30 30 30 32 34 36 36 37 37 37 37 37 38
15 15 15 15 15 14 15 14 14 15 14 13 12 12 12 12 11 11 11 11 11 12 11 11 10 10 11 13 10 10 10 11 11 12 12 12 12 12 12 15 12 11 11 9 18 19 23 23 26 24 29 28 29 30 32 33 34 36 37 37 37 37 37
15 15 15 14 13 15 13 13 13 13 12 11 11 10 10 11 10 9 9 9 9 9 10 8 8 8 9 10 9 9 9 10 9 10 9 9 11 10 12 13 14 11 8 9 11 16 17 19 21 22 23 27 29 30 31 31 32 33 35 36 37 36 36
15 14 13 12 13 12 11 11 11 11 11 10 10 9 9 9 9 9 8 7 6 7 7 6 6 6 7 7 6 6 7 8 9 8 8 8 9 10 10 12 13 13 10 10 9 13 14 17 18 20 23 25 27 27 28 29 30 31 31 33 34 36 36
14 12 12 11 10 10 10 10 10 9 9 9 9 8 8 7 6 6 6 6 6 7 6 5 5 6 6 6 5 5 6 6 6 7 7 7 8 9 10 11 12 12 13 10 8 11 15 16 17 19 20 22 21 23 25 28 27 28 29 30 31 33 35
11 11 10 10 10 10 9 10 9 8 8 8 8 8 7 6 5 6 5 5 5 5 5 5 5 5 5 4 3 3 5 5 5 6 6 6 7 8 9 9 10 11 10 10 9 10 10 14 13 14 16 19 20 19 20 20 23 26 27 28 29 30 32
9 10 9 9 9 8 8 8 7 7 6 6 6 5 4 4 4 4 4 4 4 4 5 5 4 4 4 4 4 3 3 4 4 5 5 6 6 6 6 6 7 8 8 8 8 8 10 11 13 14 12 17 20 20 20 19 19 21 26 28 28 28 31
7 8 8 7 7 7 7 6 5 5 5 4 3 2 2 2 2 2 2 3 3 4 4 4 4 4 4 4 4 4 4 4 4 5 4 6 6 6 6 5 6 6 7 6 6 7 7 9 10 12 14 17 17 15 16 19 19 18 21 24 27 28 28
7 5 5 5 5 4 5 3 2 3 2 1 1 1 0 1 0 0 0 1 1 3 3 4 4 4 5 5 7 8 7 7 7 5 4 5 6 6 6 5 6 6 6 6 6 6 8 9 9 10 11 11 12 13 14 19 21 19 22 24 25 27 30
5 3 2 2 1 2 1 1 1 2 6 7 3 2 2 2 3 2 2 2 2 3 4 4 4 5 7 7 8 8 8 9 10 10 8 7 7 6 6 6 5 5 6 6 6 6 7 6 7 9 11 11 13 16 18 17 18 18 21 23 23 25 28
1 1 1 0 -1 -1 -1 -1 0 5 4 3 5 4 2 2 3 4 4 4 4 3 5 6 7 7 8 8 9 8 10 10 10 11 12 12 11 11 8 6 5 6 6 6 6 7 7 7 7 9 12 12 13 15 15 16 18 18 19 19 19 18 24
-0 -0 -1 -1 -1 -2 -2 -2 2 8 1 1 -1 5 4 4 3 4 4 5 5 5 6 6 7 8 9 9 9 9 9 10 11 12 12 12 13 13 15 14 9 7 6 6 6 6 7 7 7 9 11 11 12 13 14 15 16 16 17 18 19 20 20
-1 -2 -1 -2 -3 -3 -2 -2 3 5 0 6 5 10 5 4 5 4 5 5 5 5 5 6 6 6 8 9 11 11 10 9 9 11 12 12 12 13 15 16 16 16 11 9 8 7 7 8 9 9 10 13 13 15 12 13 14 15 17 18 19 21 23
-2 -2 -3 -3 -3 -3 -3 -4 1 5 3 4 5 6 3 4 5 5 5 4 4 5 5 5 5 6 6 8 9 10 10 10 9 9 9 9 9 10 11 14 16 16 16 15 11 9 7 10 12 10 12 14 16 13 11 12 11 13 14 14 15 20 22
-3 -3 -3 -3 -3 -4 -4 -4 3 2 1 4 5 7 5 4 4 4 4 4 4 4 5 5 6 6 6 7 8 9 10 9 9 9 9 9 9 9 9 10 11 11 12 12 13 13 11 12 13 14 14 15 16 15 14 14 13 14 14 15 18 18 18
-2 -3 -4 -3 -4 -4 -5 -4 6 2 4 7 2 7 5 3 3 3 3 4 5 5 6 7 7 7 7 8 8 10 15 14 12 10 9 8 9 9 9 10 14 17 17 14 13 12 12 13 15 18 15 16 16 16 16 16 16 16 15 13 11 10 14
-4 -3 -4 -4 -4 -5 -5 -4 1 2 1 8 5 5 2 2 3 3 3 4 5 6 7 8 8 9 9 9 9 12 16 18 16 12 11 10 9 9 9 9 12 17 20 20 20 20 20 20 20 20 21 22 22 19 17 15 13 11 13 10 8 9 11
-4 -3 -3 -4 -4 -4 -5 -5 -1 5 1 0 2 6 2 3 3 3 4 5 6 7 8 9 11 11 10 10 10 15 17 18 16 12 12 11 11 10 8 9 11 12 14 20 21 20 20 20 20 21 21 22 23 23 20 14 10 12 14 10 10 9 11
-4 -4 -3 -3 -4 -2 -4 -5 -2 4 5 2 2 1 2 2 3 2 3 4 5 7 8 9 11 13 13 13 15 18 19 20 17 14 13 13 12 11 10 11 12 11 11 11 11 12 14 15 18 17 16 17 19 21 21 18 15 15 13 10 11 12 12
-4 -5 -5 -5 -5 -5 -5 -6 -5 -2 6 -1 4 4 3 4 3 2 2 4 4 4 6 9 10 13 14 17 17 18 18 19 19 15 14 14 13 12 11 15 14 13 13 12 12 11 11 11 12 13 13 13 14 16 17 17 17 16 15 13 12 13 13
-6 -7 -7 -6 -5 -5 -4 -4 -4 -2 6 1 5 7 7 4 3 3 3 3 4 5 6 8 9 10 12 14 16 16 17 18 18 18 14 15 15 15 17 18 14 14 15 12 12 12 12 12 12 12 13 13 13 14 15 16 17 17 16 15 13 13 13
-7 -7 -7 -6 -5 -4 -4 -1 0 -1 4 7 6 7 7 4 3 5 4 3 4 6 6 7 9 9 10 11 15 16 17 18 18 19 15 16 21 22 22 19 17 15 14 14 13 13 12 12 12 12 12 13 14 15 16 16 16 17 17 17 17 15 14
-8 -8 -7 -6 -4 -3 -2 -1 0 2 1 5 7 6 6 7 5 9 5 3 3 4 5 8 8 8 9 11 14 15 16 16 16 16 15 19 20 21 20 19 18 17 15 14 13 12 11 12 12 12 12 13 14 15 16 16 17 17 18 18 19 19 19
-7 -7 -7 -7 -5 -3 -1 -1 0 2 3 2 5 7 5 5 6 6 3 4 4 6 6 7 7 7 11 13 13 14 14 15 13 12 17 17 18 18 20 18 17 16 16 15 14 12 12 12 13 13 14 14 16 17 17 17 17 18 18 18 19 19 20
-7 -8 -7 -7 -6 -4 -3 -1 -1 0 2 3 3 7 8 7 3 4 5 4 5 6 7 8 11 12 11 11 12 12 11 9 9 12 12 13 14 17 18 18 17 17 16 15 13 13 13 13 14 15 15 16 17 18 19 18 18 19 19 19 19 19 20
-8 -8 -7 -7 -6 -5 -4 -3 -2 -1 -1 1 1 2 4 5 4 3 5 7 6 8 8 7 8 7 7 6 7 5 5 5 6 8 9 11 12 11 13 15 16 16 15 15 16 15 14 15 16 17 18 18 18 18 17 18 18 18 18 19 19 18 19
-8 -8 -7 -7 -7 -6 -5 -4 -2 -2 -2 -1 -1 -1 -0 -0 0 4 6 5 5 5 3 3 4 4 5 6 6 6 6 6 6 5 5 6 6 7 9 11 13 14 15 16 16 17 17 18 19 19 19 18 18 17 18 20 19 18 17 18 18 17 17
-9 -8 -8 -8 -7 -6 -5 -5 -5 -4 -4 -3 -2 -2 -2 -1 0 2 3 3 3 2 1 1 3 3 3 3 2 2 2 2 2 2 2 2 3 4 7 9 12 15 16 17 18 18 20 19 19 18 18 18 18 18 19 20 19 18 18 19 18 16 15
-7 -6 -5 -6 -6 -7 -7 -7 -7 -5 0 -2 -0 -2 -2 -2 0 2 2 4 4 1 -0 0 -1 -1 -1 -1 -2 -2 -2 -1 -1 -1 -0 -0 1 2 4 6 8 9 13 17 18 18 17 17 18 18 19 18 18 18 19 20 19 19 18 18 18 15 15
-5 -4 -4 -5 -3 -3 -6 -7 -5 -1 -6 -6 -3 3 -0 2 3 3 3 4 3 1 -3 -3 -4 -4 -4 -4 -4 -5 -4 -4 -4 -4 -3 -2 0 1 1 4 6 8 10 15 17 18 18 17 17 17 17 17 17 17 18 19 19 17 18 17 16 16 16
-2 -5 -1 -2 -4 -3 -1 -2 -2 -0 -6 -3 -3 -1 0 2 2 3 3 3 -1 -4 -5 -6 -6 -6 -5 -5 -5 -6 -5 -5 -5 -5 -5 -5 -3 -2 0 2 3 5 8 8 14 17 18 18 17 16 17 16 17 17 17 17 18 18 18 17 17 16 16
-2 -3 -2 -1 -2 -4 -6 -3 -2 -2 -4 -3 -0 1 -3 1 4 3 3 2 0 -6 -7 -6 -7 -8 -7 -7 -7 -6 -6 -6 -6 -6 -6 -6 -5 -4 -2 -1 0 3 3 6 11 16 17 17 17 16 16 16 16 16 16 16 16 17 16 17 17 16 17
-2 -1 0 -3 -5 -7 -6 -5 -3 -4 -4 -4 -1 -0 2 3 2 1 1 -0 -6 -8 -9 -8 -8 -8 -8 -8 -8 -7 -7 -7 -6 -6 -6 -6 -6 -6 -4 -2 -0 2 4 7 11 16 17 17 17 17 16 16 16 16 15 15 15 16 16 16 16 16 17
-1 -2 -4 -2 -1 -0 -0 -0 -1 -2 -1 -1 0 -3 -1 1 -2 0 0 -3 -8 -9 -10 -9 -9 -9 -9 -8 -8 -8 -7 -7 -7 -7 -7 -6 -6 -5 -4 -3 -1 1 2 4 5 10 17 17 17 17 16 16 16 16 16 15 15 15 15 15 16 16 16
-10 -7 -6 -8 -8 -7 -6 -7 -7 -7 -7 -5 -2 1 1 -1 -8 -10 -9 -8 -9 -9 -10 -11 -10 -10 -9 -9 -9 -8 -8 -8 -8 -8 -7 -7 -7 -6 -6 -5 -3 -1 1 1 2 5 12 17 17 17 17 16 15 15 14 14 15 15 16 15 15 16 16
-11 -11 -8 -7 -7 -7 -7 -7 -8 -8 -7 -1 1 -0 -4 -11 -11 -12 -12 -12 -11 -11 -11 -10 -10 -10 -10 -9 -9 -8 -8 -8 -8 -8 -8 -7 -7 -7 -7 -6 -4 -2 -2 -1 -0 3 6 10 15 17 16 16 16 15 15 15 15 15 15 15 15 16 17

ECMWFFLT1_sfc_temp_099.txt.gz
Temp
12 11 11 11 11 11 10 10 10 10 10 9 8 8 8 8 8 7 7 7 7 8 7 6 5 6 7 8 6 6 6 7 8 8 8 8 7 6 7 6 4 1 1 7 12 12 12 15 16 15 17 16 16 17 18 21 20 21 21 21 22 23 27
11 11 11 10 10 10 10 9 9 9 9 7 7 7 8 7 7 6 6 6 5 6 6 5 4 4 5 6 5 5 4 5 5 5 5 6 6 6 6 8 5 3 2 1 8 8 12 12 14 11 15 14 14 15 17 17 18 20 20 21 21 22 22
10 11 10 10 9 9 9 9 8 8 7 6 6 5 6 6 6 5 4 4 4 4 5 4 3 3 4 5 3 3 4 4 4 4 4 3 5 4 5 7 7 5 1 1 3 8 7 9 11 10 11 14 15 15 16 16 16 17 19 20 20 20 21
11 10 9 8 8 8 7 7 7 7 7 6 5 5 4 5 4 4 4 3 3 3 3 2 2 2 3 3 2 2 2 3 3 3 3 3 3 3 4 5 6 6 4 3 1 5 5 8 8 10 12 14 15 14 14 15 15 16 15 17 18 18 19
10 9 8 8 7 7 7 6 6 6 5 5 5 5 4 3 3 3 3 3 2 3 2 2 1 2 2 2 0 1 1 2 1 2 2 2 3 3 4 5 5 5 6 4 2 3 7 8 9 10 11 12 11 11 12 13 12 12 13 14 16 18 20
8 7 7 7 7 6 6 6 5 5 4 4 4 4 3 2 2 2 2 2 2 2 2 1 1 1 1 0 -1 -1 -0 0 -0 0 -0 0 1 2 3 2 3 4 4 3 3 3 3 6 5 7 8 10 11 10 9 9 10 12 12 12 12 14 17
6 7 6 6 6 5 5 4 4 3 3 2 2 1 1 0 1 1 1 1 1 1 1 1 1 0 1 -0 -1 -1 -2 -1 -1 -1 -1 -1 -1 0 0 -0 0 2 2 2 1 2 3 3 5 6 4 8 11 10 10 8 7 7 10 12 11 11 15
5 6 5 5 5 5 4 3 2 2 1 1 -0 -1 -1 -1 -1 -1 -0 -0 1 1 1 1 1 0 0 -0 -0 -1 -1 -1 -2 -1 -2 -0 -0 -0 -1 -2 -1 -0 0 0 0 0 0 2 3 5 7 8 8 6 6 8 7 5 6 8 11 12 12
5 4 3 3 3 2 2 1 -0 -0 -0 -2 -2 -1 -2 -1 -1 -1 -1 -1 -0 0 0 0 0 0 -0 1 3 4 4 3 3 -0 -2 -1 -0 -1 -1 -1 -1 -0 -0 -1 -0 -1 1 1 1 3 3 3 3 2 3 7 9 6 8 9 10 11 14
2 1 0 -0 -0 -0 -1 -1 -1 1 4 8 4 3 2 2 2 2 2 1 1 2 2 2 2 2 4 4 5 5 5 5 6 6 4 2 1 -0 -0 -0 -0 -1 -1 -1 -1 -1 -0 -1 -0 1 3 3 4 7 8 7 7 5 7 8 7 10 12
0 -1 -1 -1 -2 -3 -3 -3 -2 4 10 5 3 4 3 3 3 3 2 2 2 1 2 2 2 2 4 5 6 5 7 7 8 8 8 8 8 8 4 2 0 -0 0 -1 -1 -0 -1 -1 -1 1 3 4 5 6 6 6 7 6 7 4 3 1 7
-2 -2 -2 -2 -3 -4 -4 -3 1 8 7 8 8 5 4 3 3 2 2 2 2 1 1 1 1 1 2 2 2 3 3 5 7 8 8 9 9 10 12 12 7 3 1 1 -0 -0 -0 -0 -1 0 2 2 3 4 5 6 6 6 5 4 4 5 4
-1 -2 -2 -3 -4 -4 -4 -4 4 8 5 6 8 8 7 3 3 2 2 1 1 0 0 0 0 -0 1 1 4 4 3 3 3 5 6 7 8 8 9 12 13 13 9 7 4 2 2 2 2 1 2 4 4 6 4 5 4 5 6 6 5 6 8
-2 -2 -3 -4 -5 -5 -5 -5 -0 7 8 5 2 5 6 2 2 2 1 -0 -1 -1 -1 -1 -1 -2 -2 -0 0 1 1 1 1 1 1 2 3 3 5 8 10 11 11 11 8 7 5 6 7 4 6 7 9 6 4 4 3 5 5 5 5 8 10
-4 -4 -4 -5 -5 -6 -6 -6 3 8 5 -1 6 7 6 3 2 -0 -1 -2 -2 -2 -2 -2 -1 -1 -1 -1 -0 1 3 2 2 2 2 2 2 3 3 4 5 5 6 6 7 7 7 9 10 9 9 9 9 8 8 8 7 7 7 8 10 10 11
-4 -5 -5 -5 -6 -6 -7 -6 5 7 6 0 4 6 2 -0 -2 -2 -1 -1 -1 -1 -1 -0 -0 -1 -1 -0 0 3 9 9 7 6 5 5 5 5 6 6 10 13 13 10 8 8 8 9 10 15 12 12 11 10 10 10 10 9 9 7 6 4 8
-4 -4 -5 -6 -6 -7 -7 -7 -0 5 7 4 4 4 0 -1 -1 -1 -1 -1 -1 -1 -1 -0 -0 0 1 2 2 5 10 12 10 6 6 6 6 7 7 8 10 15 17 17 18 17 18 18 18 20 21 21 21 16 13 9 7 5 7 5 3 4 6
-5 -5 -5 -6 -7 -7 -8 -7 -2 6 7 5 3 3 -0 -0 -2 -3 -2 -2 -1 -1 -1 1 5 6 4 4 3 9 12 13 10 7 6 6 6 6 7 8 11 11 13 19 19 20 20 21 21 20 20 20 20 21 20 12 6 8 8 5 5 3 5
-6 -6 -6 -6 -6 -4 -5 -6 -4 3 5 6 -0 2 -0 -0 -1 -2 -2 -1 -1 0 1 1 4 6 6 5 7 11 12 13 11 7 7 7 6 6 6 8 10 9 9 10 10 11 12 13 16 15 15 16 19 20 20 17 14 13 9 6 6 6 6
-6 -7 -7 -6 -7 -7 -7 -8 -7 -5 5 5 0 4 1 0 -1 -2 -1 -0 0 0 1 1 -0 2 5 8 9 10 12 13 14 10 8 8 6 5 5 8 9 9 8 7 7 7 9 10 12 13 14 14 14 15 16 17 16 16 13 10 8 8 7
-7 -8 -8 -7 -7 -7 -7 -7 -8 -6 3 6 2 4 2 -1 -2 -1 -1 -0 1 1 -1 -2 -3 -2 2 5 8 9 11 12 13 13 9 8 5 6 9 11 5 4 6 4 4 5 6 7 9 10 12 13 14 14 14 14 15 16 16 14 11 9 8
-8 -9 -9 -8 -8 -8 -8 -7 -5 -7 -1 5 1 -2 4 1 -1 1 1 0 -0 -1 -3 -4 -3 -4 -0 3 7 8 7 9 12 13 7 6 11 12 11 5 3 2 1 1 2 4 6 8 9 10 11 11 12 12 12 12 13 14 15 16 15 13 10
-9 -10 -10 -10 -9 -8 -8 -8 -7 -4 -5 1 5 4 3 4 1 6 2 -1 -3 -3 -5 -4 -4 -2 1 3 9 6 7 10 11 9 6 10 11 11 8 4 0 -0 -2 -2 -1 0 1 4 6 7 9 10 10 10 11 11 12 12 12 13 15 16 16
-10 -10 -11 -11 -10 -9 -9 -8 -9 -5 -3 -3 2 6 4 3 4 4 1 1 -4 -5 -5 -5 -4 -2 5 6 5 8 9 10 7 5 8 9 8 4 4 -0 -2 -3 -4 -3 -3 -3 -2 1 5 8 10 11 11 12 12 12 12 12 12 11 12 13 15
-10 -11 -11 -11 -11 -10 -9 -9 -9 -9 -5 -3 -2 4 6 6 3 4 2 -3 -4 -3 -4 -0 5 4 7 9 10 9 7 4 2 4 4 3 2 2 -2 -3 -4 -5 -5 -6 -6 -4 -2 -0 3 5 9 12 14 14 14 13 12 12 11 11 11 11 12
-10 -10 -11 -11 -11 -11 -10 -9 -9 -9 -8 -5 -4 -3 1 4 2 0 0 -0 -2 0 1 2 4 3 4 3 2 -0 -3 -2 -2 1 1 0 0 -3 -4 -5 -6 -6 -7 -7 -6 -4 -3 -1 3 6 9 10 11 12 12 12 11 10 9 9 9 8 9
-10 -11 -11 -12 -11 -10 -10 -9 -9 -9 -8 -8 -9 -8 -7 -6 -6 -2 -1 -3 -4 -2 -3 -1 1 1 1 -1 -1 -1 -1 -2 -2 -4 -4 -5 -4 -5 -5 -5 -5 -6 -6 -6 -5 -4 -3 -1 1 3 4 5 7 9 12 14 12 11 10 10 9 8 7
-10 -10 -10 -11 -10 -9 -9 -9 -9 -8 -8 -9 -8 -8 -7 -7 -6 -6 -5 -5 -3 -3 -1 -1 -2 -5 -9 -9 -8 -8 -9 -9 -8 -7 -6 -7 -6 -6 -5 -4 -2 -2 -4 -5 -5 -5 -4 -3 -1 -1 1 4 6 7 10 14 13 12 10 10 10 7 6
-8 -7 -7 -6 -7 -7 -8 -8 -8 -7 -2 -2 1 -0 -1 -3 -3 -3 -3 -1 2 2 -4 -9 -12 -14 -12 -13 -12 -12 -12 -12 -11 -10 -8 -8 -7 -7 -7 -7 -7 -8 -7 -7 -7 -7 -6 -5 -3 -0 3 4 5 6 10 14 13 13 11 11 10 8 8
0 1 0 -2 -3 -5 -8 -7 -3 3 6 4 1 2 2 -0 0 2 1 2 3 -2 -13 -17 -20 -18 -18 -15 -16 -15 -14 -13 -13 -12 -11 -10 -7 -8 -8 -8 -7 -8 -8 -7 -7 -7 -6 -4 -2 -2 -1 1 3 5 10 15 14 12 12 10 10 9 10
8 8 5 3 1 2 4 4 2 1 4 4 1 0 -0 1 1 -0 1 2 -3 -12 -18 -19 -19 -18 -18 -16 -16 -16 -15 -14 -14 -13 -13 -12 -11 -10 -9 -9 -9 -9 -8 -8 -8 -7 -6 -4 -4 -4 -2 -1 1 3 7 12 14 13 12 10 11 10 10
7 7 7 5 3 1 -0 1 1 0 4 1 -3 0 -3 -3 -3 2 1 -2 -4 -15 -19 -22 -21 -20 -20 -18 -18 -16 -15 -15 -15 -14 -14 -13 -13 -12 -10 -10 -11 -9 -9 -9 -9 -8 -7 -7 -6 -4 -3 -2 -0 2 4 8 10 12 11 12 12 12 12
5 5 5 5 5 5 4 1 0 1 5 3 0 -2 -2 0 -2 -2 -3 -6 -15 -23 -21 -22 -21 -21 -21 -19 -19 -18 -17 -16 -15 -15 -14 -13 -13 -13 -12 -11 -9 -8 -9 -9 -8 -8 -9 -8 -7 -5 -4 -3 -2 -1 -1 4 8 9 11 12 11 12 12
0 0 -1 -0 1 2 2 2 2 1 1 1 2 1 2 -4 -6 -2 -3 -10 -20 -21 -22 -21 -21 -20 -20 -20 -18 -18 -17 -16 -16 -15 -15 -14 -13 -13 -12 -11 -10 -11 -10 -9 -9 -10 -9 -8 -8 -7 -7 -7 -5 -4 -1 1 5 6 5 5 8 10 11
-10 -6 -4 -6 -5 -4 -4 -4 -4 -4 -4 -4 -4 -2 -0 -5 -16 -20 -19 -19 -24 -20 -23 -21 -20 -21 -19 -20 -19 -18 -17 -17 -17 -17 -16 -15 -14 -13 -13 -12 -12 -12 -10 -10 -10 -11 -10 -9 -9 -9 -8 -7 -8 -7 -6 -2 1 4 8 7 6 8 8
-11 -10 -7 -5 -5 -5 -4 -5 -4 -5 -5 -1 2 2 -5 -17 -20 -22 -22 -21 -22 -24 -21 -20 -21 -20 -20 -20 -20 -19 -19 -18 -18 -17 -16 -15 -14 -14 -14 -14 -13 -12 -11 -10 -11 -11 -10 -10 -11 -11 -10 -9 -8 -7 -6 -4 -2 2 6 9 10 9 8